Flag for France Weather past 2 weeks in Paris, France

Now
64 °F

Passing clouds.


Feels Like: 64 °F
Forecast: 53 / 69 °F
Wind: 12 mph from Southwest

Location: Villacoublay

Current Time: Aug 22, 2014 at 12:53:23 PM

Latest Report: Aug 22, 2014 at 12:00 PM


Visibility: N/A

Pressure: 29.98 "Hg

Humidity: 49%

Dew point: 45 °F

Location of ParisLocation

Historic Weather in Paris — Graph

°F

Paris temperature yesterday

Maximum temperature yesterday: 68 °F (at 3:30 PM)
Minimum temperature yesterday: 46 °F (at 3:30 AM)
Average temperature yesterday: 57 °F

Past Weeks' High & Low Weather Summary

 TemperatureHumidityPressure
High75 °F (Aug 7, 6:00 PM)100% (Aug 8, 9:30 AM)30.21 "Hg (Aug 8, 9:30 AM)
Low46 °F (Aug 21, 3:30 AM)40% (Aug 21, 3:30 PM)29.59 "Hg (Aug 10, 3:00 PM)
Average61 °F75%29.94 "Hg
* Reported Aug 7 11:00 AM — Aug 22 11:30 AM, Paris, Weather by CustomWeather, © 2014

Note: Actual official high and low records may vary slightly from our data, if they occured in-between our weather recording intervals... More about our weather records

Advertising

Paris weather history for previous 24 hours

 ConditionsComfort  
Time TempWeatherWind HumidityBarometerVisibility
11:30 AM
Aug 22
63 °FClear.12 mph52%29.98 "HgN/A
11:00 AM63 °FClear.9 mph56%29.98 "HgN/A
10:30 AM61 °FClear.9 mph63%29.98 "HgN/A
10:00 AM59 °FClear.7 mph68%29.98 "HgN/A
9:30 AM57 °FClear.6 mph72%29.98 "HgN/A
9:00 AM55 °FClear.5 mph77%29.98 "HgN/A
8:30 AM54 °FClear.6 mph82%29.98 "HgN/A
8:00 AM52 °FClear.2 mph82%29.95 "HgN/A
7:30 AM52 °FClear.5 mph82%29.95 "HgN/A
7:00 AM50 °FClear.3 mph88%29.95 "HgN/A
6:30 AM52 °FClear.3 mph82%29.95 "HgN/A
6:00 AM54 °FClear.5 mph77%29.95 "HgN/A
5:30 AM54 °FClear.5 mph77%29.98 "HgN/A
5:00 AM54 °FClear.6 mph77%29.98 "HgN/A
4:30 AM54 °FClear.3 mph77%29.98 "HgN/A
4:00 AM55 °FClear.3 mph72%29.98 "HgN/A
3:30 AM55 °FClear.3 mph72%29.98 "HgN/A
3:00 AM55 °FClear.3 mph67%29.98 "HgN/A
2:30 AM55 °FClear.2 mph67%29.98 "HgN/A
2:00 AM57 °FClear.3 mph63%30.01 "HgN/A
1:30 AM57 °FClear.3 mph63%30.01 "HgN/A
1:00 AM57 °FClear.2 mph59%30.01 "HgN/A
12:30 AM57 °FClear.3 mph63%30.01 "HgN/A
12:00 AM57 °FClear.3 mph63%30.01 "HgN/A
11:30 PM
Aug 21
57 °FClear.3 mph63%30.01 "HgN/A
11:00 PM57 °FClear.2 mph63%30.01 "HgN/A
10:30 PM57 °FClear.No wind63%30.01 "HgN/A
10:00 PM59 °FClear.No wind59%30.01 "HgN/A
9:30 PM59 °FClear.No wind59%30.01 "HgN/A
9:00 PM59 °FClear.No wind59%30.01 "HgN/A
8:30 PM63 °FClear.2 mph49%30.01 "HgN/A
8:00 PM64 °FClear.5 mph49%30.01 "HgN/A
7:30 PM64 °FClear.3 mph46%30.01 "HgN/A
7:00 PM64 °FClear.5 mph46%30.01 "HgN/A
6:30 PM64 °FClear.7 mph43%30.04 "HgN/A
6:00 PM66 °FClear.7 mph43%30.04 "HgN/A
5:30 PM66 °FClear.5 mph43%30.04 "HgN/A
5:00 PM64 °FClear.3 mph43%30.04 "HgN/A
4:30 PM64 °FClear.7 mph46%30.04 "HgN/A
4:00 PM66 °FClear.9 mph40%30.04 "HgN/A
3:30 PM68 °FClear.9 mph40%30.04 "HgN/A
3:00 PM64 °FClear.6 mph49%30.07 "HgN/A
2:30 PM63 °FPartly sunny.6 mph49%30.07 "HgN/A
2:00 PM64 °FBroken clouds.5 mph46%30.07 "HgN/A
1:30 PM61 °FMostly cloudy.7 mph55%30.09 "HgN/A
1:00 PM64 °FBroken clouds.8 mph52%30.09 "HgN/A
12:30 PM61 °FBroken clouds.7 mph59%30.09 "HgN/A
12:00 PM61 °FBroken clouds.6 mph55%30.09 "HgN/A
Weather by CustomWeather, © 2014

See weather overviewHow to use our weather pages